SCP
0 0 0 0 0 0 0 -0 0 -0 -0 0 0 0 0 0 0 0 0 0 0 0 -0 0 0 0 0 0 0 0 0 0 0 0 0 0 0 0 0 0 0 0 0
0 0 0 0 0 0 0 -0 0 -0 -0 -0 0 0 0 0 0 0 0 0 0 -0 -0 0 0 0 0 0 0 0 0 0 0 0 0 0 0 0 0 0 0 -0 -0
0 0 0 0 0 0 0 0 -0 -0 -0 -0 0 0 0 0 0 0 0 0 0 0 -0 0 -0 0 0 0 0 0 0 0 0 0 0 0 0 0 0 0 0 0 0
0 0 0 0 0 0 0 0 0 -0 -0 -0 0 0 0 0 0 0 0 0 0 0 0 0 0 0 0 0 0 0 0 0 0 0 0 0 0 0 0 0 0 0 0
0 0 0 0 0 0 0 0 0 -0 -0 -0 -0 -0 0 0 0 0 0 0 0 0 0 0 0 0 0 0 0 0 0 0 0 0 0 0 0 0 0 -0 -0 -0 0
0 0 0 -0 0 -0 -0 -0 -0 0 0 -0 -0 -0 -0 0 0 0 0 0 0 0 0 0 0 0 0 0 0 0 0 0 0 0 0 0 -0 -0 -0 0 -0 -0 -0
0 0 0 -0 -0 0 0 0 0 -0 0 0 -0 -0 -0 0 0 0 0 0 0 0 0 0 0 0 0 0 0 0 0 0 0 -0 -0 -0 -0 -0 -0 0 0 -0 -0
0 0 0 -0 0 0 0 0 0 0 0 -0 0 -0 0 0 0 -0 0 0 0 0 0 0 0 -0 0 0 0 0 0 0 0 0 -0 -0 -0 -0 0 0 0 -0 -0
0 0 0 0 0 -0 0 0 0 0 0 0 0 0 -0 0 0 -0 -0 0 0 0 0 0 0 -0 0 -0 -0 -0 0 0 0 0 0 0 -0 0 0 0 0 -0 0
0 0 0 0 0 0 0 0 0 0 0 0 0 0 0 0 0 0 0 0 -0 0 0 0 -0 -0 -0 0 0 0 0 0 0 0 0 0 0 0 0 -0 -0 0 0
0 0 0 -0 0 0 0 0 0 0 0 0 0 0 0 0 0 0 0 0 0 0 0 0 0 -0 0 0 0 0 0 -0 0 0 -0 -0 0 -0 -0 -0 -0 -0 0
-0 0 0 0 -0 0 0 0 0 0 0 0 0 0 0 0 0 0 0 0 0 0 0 0 -0 -0 -0 0 0 0 -0 -0 -0 -0 -0 0 0 0 0 0 0 0 0
-0 -0 -0 0 0 0 -0 -0 0 0 0 0 0 0 0 0 0 0 0 0 0 0 0 -0 -0 -0 0 0 0 0 0 0 0 -0 0 0 0 0 0 0 0 0 0
-0 -0 -0 -0 -0 0 0 0 0 0 0 0 0 0 0 0 0 0 0 0 -0 -0 -0 -0 -0 -0 -0 -0 -0 -0 0 -0 -0 -0 0 0 0 0 0 0 0 0 0
-0 -0 0 -0 -0 -0 0 0 0 0 0 0 0 0 0 0 0 0 0 0 0 -0 -0 -0 -0 -0 0 0 0 0 -0 -0 -0 0 0 0 0 0 0 0 0 0 0
-0 -0 -0 0 0 -0 0 -0 0 0 0 0 0 0 -0 -0 0 -0 -0 0 -0 -0 0 0 0 0 0 0 0 -0 -0 -0 0 0 0 0 0 0 0 0 0 0 0
-0 -0 -0 -0 0 -0 0 -0 -0 -0 -0 -0 -0 -0 0 0 0 -0 -0 -0 -0 -0 0 0 0 0 0 0 -0 -0 -0 -0 0 0 0 0 0 0 0 0 0 0 0
-0 -0 0 0 -0 -0 -0 -0 -0 -0 -0 -0 -0 -0 -0 0 -0 -0 -0 -0 0 -0 -0 -0 -0 -0 -0 0 -0 -0 -0 0 0 0 0 0 0 0 0 0 0 0 0
-0 0 0 0 0 -0 -0 -0 -0 -0 -0 -0 -0 0 0 0 0 0 -0 0 0 0 0 -0 -0 -0 -0 -0 -0 -0 -0 0 0 0 0 0 0 0 0 0 0 0 0
0 0 0 0 0 0 -0 -0 -0 -0 -0 -0 -0 -0 0 0 0 0 0 0 0 0 0 0 0 -0 -0 0 0 0 0 0 0 0 0 0 0 0 0 0 0 0 0
0 0 0 0 0 0 0 -0 -0 -0 -0 -0 -0 0 0 0 0 0 0 0 0 0 0 0 0 0 0 0 0 0 0 0 0 0 0 0 0 0 0 0 0 0 0
0 0 0 0 0 0 0 0 0 -0 -0 0 0 0 0 0 0 0 0 0 0 0 0 0 0 0 0 0 0 0 0 0 0 0 0 0 0 0 0 0 0 0 0
0 0 0 0 0 0 0 0 0 0 0 0 0 0 0 0 0 0 0 0 0 0 0 0 0 0 0 0 0 0 0 0 0 0 0 0 0 0 0 0 0 0 0
0 0 0 0 0 0 0 0 0 0 0 0 0 0 0 0 0 0 0 0 0 0 0 0 0 0 0 0 0 0 0 0 0 0 0 0 0 0 0 0 0 0 0
0 0 0 0 0 0 0 0 0 0 0 0 0 0 0 0 0 0 0 0 0 0 0 0 0 0 0 0 0 0 0 0 0 0 0 0 0 0 0 0 0 0 0
0 0 0 0 0 0 0 0 0 0 0 0 0 0 0 0 0 0 0 0 0 0 0 0 0 0 0 0 0 0 0 0 0 0 0 0 0 0 0 0 0 0 0
Wind_Speed_500mb
23 19 13 2 3 2 2 6 12 17 18 14 12 11 6 7 8 8 6 8 15 18 15 15 15 24 27 14 30 27 38 44 49 63 81 80 91 70 61 54 46 40 35
21 17 15 6 1 1 2 7 12 18 18 14 11 11 12 12 16 16 15 18 17 15 16 16 18 27 32 23 32 31 37 36 50 68 62 69 74 66 60 52 46 38 35
21 16 13 6 2 1 9 13 19 19 20 17 17 17 18 22 21 21 20 21 24 21 19 17 20 26 35 29 36 39 39 34 48 57 65 77 76 70 66 54 48 42 37
21 17 13 10 5 5 19 20 19 21 23 24 25 26 22 21 21 22 23 23 27 30 32 34 28 22 29 26 31 36 40 48 63 61 62 74 72 69 58 45 44 40 35
23 21 16 13 12 19 23 24 25 26 25 25 27 25 20 20 22 26 27 27 29 33 35 32 28 23 21 25 31 47 49 50 58 61 83 76 70 60 52 43 40 40 34
26 24 21 18 23 27 25 25 27 25 26 26 23 20 18 21 21 18 15 14 22 29 34 30 30 31 40 39 37 44 53 67 64 69 73 69 61 58 52 47 44 43 31
28 27 26 22 30 28 25 22 22 23 24 22 20 18 17 18 19 16 13 15 21 27 29 28 36 39 40 39 33 39 52 50 57 64 66 65 63 53 45 46 44 33 34
31 31 33 27 27 27 25 21 19 21 21 17 13 14 17 21 25 19 22 21 24 32 35 35 39 40 36 41 47 50 46 45 44 39 37 44 42 43 36 43 46 46 37
35 35 39 34 28 28 24 22 18 20 21 18 15 12 17 19 23 22 21 21 29 35 40 34 43 42 43 46 49 49 46 42 32 33 37 39 42 42 46 50 48 40 30
39 37 41 38 30 28 20 18 16 19 18 17 16 15 20 22 26 29 21 27 38 42 39 43 37 44 47 38 32 34 35 36 41 45 46 46 48 47 43 37 33 27 26
39 39 39 40 31 29 24 21 15 16 19 19 21 24 24 24 28 28 28 26 35 40 40 42 41 41 35 32 36 37 36 37 41 42 43 43 41 36 32 29 26 24 24
43 41 39 42 36 34 29 25 21 16 21 24 26 30 30 29 27 30 30 26 31 47 44 42 45 37 41 36 37 37 35 35 39 38 35 35 34 33 31 31 30 28 26
48 45 41 41 39 38 32 32 26 21 20 26 27 31 33 32 31 31 31 30 32 33 33 41 43 47 38 42 42 36 29 26 27 29 28 30 32 30 29 30 28 25 24
55 49 46 42 46 40 37 32 28 25 23 27 30 29 30 32 32 31 30 30 30 31 33 39 37 35 37 40 36 32 26 22 20 21 24 25 25 25 28 27 26 27 18
61 54 51 49 45 46 44 39 35 29 21 19 26 32 34 33 30 29 31 32 31 31 33 35 37 38 40 42 40 35 29 25 23 23 24 22 23 25 27 26 26 23 18
69 63 59 56 53 51 49 46 41 36 29 23 13 11 24 30 30 30 30 30 29 29 31 34 37 38 40 42 42 40 36 32 30 26 26 24 25 26 32 36 34 29 25
71 72 66 62 59 56 54 52 48 42 39 36 30 27 16 20 31 36 34 32 31 32 35 37 38 41 44 45 45 44 41 38 35 33 32 31 30 31 35 41 39 38 35
68 66 72 69 67 63 60 56 48 47 49 47 42 40 35 32 35 35 36 40 44 45 42 40 43 44 45 46 48 48 46 46 43 43 42 39 37 36 38 46 45 42 39
79 71 69 70 69 67 61 59 55 47 44 43 49 45 44 43 43 48 46 50 51 53 55 53 49 45 46 47 47 50 52 52 52 51 48 45 43 41 45 48 45 43 39
79 73 69 67 71 68 69 64 57 55 53 47 49 50 52 52 54 58 64 62 63 62 59 58 58 57 54 50 49 49 52 57 56 56 56 53 50 48 48 50 49 50 40
83 82 77 70 67 68 71 72 67 60 56 55 52 49 50 51 55 58 62 67 69 67 65 61 60 61 60 59 58 56 55 56 58 59 61 59 55 56 60 56 59 53 56
87 83 84 83 76 70 72 72 70 67 62 58 55 56 51 52 54 55 55 57 61 62 62 58 55 54 55 59 63 64 65 64 64 63 64 62 59 58 62 66 65 57 55
87 88 87 88 86 80 74 71 72 73 72 67 62 63 63 61 61 58 51 49 50 54 54 54 51 50 52 54 55 58 62 69 72 72 72 66 68 60 76 79 76 65 60
77 81 84 84 87 85 85 84 78 73 71 70 67 64 62 58 59 61 52 50 47 51 54 57 58 57 57 57 56 56 58 63 67 70 75 78 78 73 77 84 80 63 57
60 66 72 77 79 84 78 76 79 81 75 78 76 72 65 62 61 57 57 55 45 46 49 53 56 56 58 60 60 61 64 64 65 66 68 78 85 78 77 87 77 64 60
27 25 50 60 66 71 75 74 72 74 69 71 75 72 68 65 59 53 57 64 59 53 54 56 56 54 56 59 62 64 64 62 61 58 59 65 74 80 89 84 76 67 50
Wind_Direction_500mb
162 163 153 130 72 64 90 111 145 157 162 169 170 172 152 139 128 120 126 161 157 166 176 189 193 178 177 170 170 157 166 168 145 137 153 148 148 141 147 149 150 137 134
163 169 163 194 254 324 176 159 153 155 162 162 158 163 147 129 130 115 109 100 122 139 138 132 111 153 167 159 166 156 152 154 147 144 152 142 141 135 133 138 136 138 138
168 168 176 181 157 331 172 145 136 148 150 144 142 142 134 126 117 113 108 104 104 116 133 138 128 145 160 152 152 160 148 134 153 141 142 141 143 145 139 140 145 140 141
165 157 155 131 92 113 149 139 132 141 141 138 138 140 136 124 117 110 105 100 105 106 110 116 123 135 156 152 158 163 148 151 150 149 151 161 149 149 150 148 144 142 142
159 152 139 114 89 126 131 134 131 131 132 136 141 146 144 126 113 108 104 94 102 110 109 107 104 109 130 132 141 159 156 150 150 152 156 152 154 159 158 158 151 146 146
162 158 144 117 112 116 120 131 134 129 131 127 134 142 147 147 134 125 97 101 109 118 118 110 108 109 122 114 118 127 142 141 141 153 153 152 162 164 164 165 156 151 150
168 166 152 134 126 117 117 126 133 134 137 138 138 143 148 151 148 142 124 127 130 128 134 129 122 118 121 133 124 134 141 140 141 143 150 160 162 166 165 165 162 155 160
175 171 162 150 139 130 114 107 121 141 139 129 128 148 152 147 145 132 122 125 138 138 139 138 130 123 123 137 134 130 140 146 148 143 148 153 159 160 162 162 162 161 159
183 177 173 168 152 143 130 110 110 135 144 127 116 123 153 157 147 135 123 124 136 141 142 139 132 131 130 128 131 133 136 142 141 137 142 148 154 159 159 163 165 163 161
189 182 178 178 177 171 159 143 115 133 141 139 132 120 140 144 145 142 127 134 138 139 142 138 133 136 130 133 132 136 137 140 139 133 133 142 151 155 159 164 170 166 173
190 191 186 186 182 178 170 165 149 140 138 142 141 130 138 137 133 128 135 132 137 148 143 145 145 147 137 131 134 137 142 144 146 146 147 155 160 167 173 178 178 181 192
188 194 192 187 184 179 174 173 168 152 151 139 144 139 140 136 136 136 133 134 139 137 137 141 147 152 142 131 137 137 133 143 158 154 151 153 162 171 176 180 182 184 191
188 192 196 193 191 189 182 184 178 172 168 159 153 155 153 148 143 141 139 133 141 149 148 151 150 152 157 151 149 148 146 144 150 162 166 169 171 172 177 182 187 194 194
191 193 197 199 198 196 194 191 194 188 182 181 175 169 168 169 167 165 162 157 157 161 167 169 169 171 173 171 172 170 168 166 170 180 183 181 180 186 192 196 195 184 188
194 196 199 202 201 202 203 205 203 204 198 189 192 193 187 182 178 176 173 169 168 168 172 178 185 187 188 190 193 196 199 194 195 198 201 202 206 209 203 199 195 194 211
194 197 200 204 205 206 208 208 214 214 211 208 188 181 203 207 195 189 187 187 186 187 187 189 191 192 195 200 205 209 210 208 211 210 212 222 229 225 216 207 203 204 214
198 199 200 204 208 210 207 207 207 206 212 216 213 218 206 203 202 203 202 201 201 203 208 209 209 211 212 213 215 217 219 221 223 224 227 232 230 226 220 212 210 214 216
205 206 202 203 209 213 214 212 209 212 214 217 218 224 221 214 211 212 211 214 219 218 218 219 220 223 223 223 224 225 226 229 229 233 235 236 233 236 225 217 220 223 218
207 208 207 208 210 213 217 221 221 218 220 222 226 221 223 222 218 216 219 224 228 228 229 229 229 230 231 231 231 233 234 236 236 237 238 242 241 240 230 222 223 219 209
210 211 208 209 211 213 216 220 224 226 228 227 231 229 230 226 226 224 223 223 228 229 230 232 233 234 235 233 234 236 238 237 238 241 244 247 247 240 223 219 219 209 201
209 213 212 213 213 213 216 218 222 225 228 232 233 233 235 235 237 237 236 233 233 236 237 237 236 236 237 238 238 238 239 241 242 244 245 244 241 233 231 230 219 207 204
212 215 214 214 215 215 217 219 221 225 227 228 233 238 236 237 240 242 245 245 243 243 244 243 241 240 241 242 244 244 244 244 244 244 245 245 244 244 240 223 214 212 209
215 216 218 217 221 221 220 222 226 228 230 233 236 243 244 243 243 247 250 250 246 243 242 242 242 244 245 246 247 248 248 249 250 249 247 241 243 248 232 218 215 213 213
219 221 222 220 222 226 227 227 228 230 234 235 235 239 244 245 243 249 254 253 250 246 243 243 244 245 248 250 252 254 256 254 254 252 251 246 235 241 226 215 214 212 212
213 220 224 226 227 226 228 233 234 235 235 237 239 239 239 243 245 241 245 246 244 243 244 245 245 245 247 251 252 253 254 254 257 256 252 246 244 238 224 214 212 211 196
174 232 236 233 226 231 237 234 237 241 238 238 239 238 238 242 242 245 239 246 247 247 246 248 250 251 252 251 250 249 252 252 253 253 250 248 240 229 217 209 210 197 190
Wind_Speed_850mb
23 19 13 2 3 2 2 6 12 17 18 14 12 11 6 7 8 8 6 8 15 18 15 15 15 24 27 14 30 27 38 44 49 63 81 80 91 70 61 54 46 40 35
21 17 15 6 1 1 2 7 12 18 18 14 11 11 12 12 16 16 15 18 17 15 16 16 18 27 32 23 32 31 37 36 50 68 62 69 74 66 60 52 46 38 35
21 16 13 6 2 1 9 13 19 19 20 17 17 17 18 22 21 21 20 21 24 21 19 17 20 26 35 29 36 39 39 34 48 57 65 77 76 70 66 54 48 42 37
21 17 13 10 5 5 19 20 19 21 23 24 25 26 22 21 21 22 23 23 27 30 32 34 28 22 29 26 31 36 40 48 63 61 62 74 72 69 58 45 44 40 35
23 21 16 13 12 19 23 24 25 26 25 25 27 25 20 20 22 26 27 27 29 33 35 32 28 23 21 25 31 47 49 50 58 61 83 76 70 60 52 43 40 40 34
26 24 21 18 23 27 25 25 27 25 26 26 23 20 18 21 21 18 15 14 22 29 34 30 30 31 40 39 37 44 53 67 64 69 73 69 61 58 52 47 44 43 31
28 27 26 22 30 28 25 22 22 23 24 22 20 18 17 18 19 16 13 15 21 27 29 28 36 39 40 39 33 39 52 50 57 64 66 65 63 53 45 46 44 33 34
31 31 33 27 27 27 25 21 19 21 21 17 13 14 17 21 25 19 22 21 24 32 35 35 39 40 36 41 47 50 46 45 44 39 37 44 42 43 36 43 46 46 37
35 35 39 34 28 28 24 22 18 20 21 18 15 12 17 19 23 22 21 21 29 35 40 34 43 42 43 46 49 49 46 42 32 33 37 39 42 42 46 50 48 40 30
39 37 41 38 30 28 20 18 16 19 18 17 16 15 20 22 26 29 21 27 38 42 39 43 37 44 47 38 32 34 35 36 41 45 46 46 48 47 43 37 33 27 26
39 39 39 40 31 29 24 21 15 16 19 19 21 24 24 24 28 28 28 26 35 40 40 42 41 41 35 32 36 37 36 37 41 42 43 43 41 36 32 29 26 24 24
43 41 39 42 36 34 29 25 21 16 21 24 26 30 30 29 27 30 30 26 31 47 44 42 45 37 41 36 37 37 35 35 39 38 35 35 34 33 31 31 30 28 26
48 45 41 41 39 38 32 32 26 21 20 26 27 31 33 32 31 31 31 30 32 33 33 41 43 47 38 42 42 36 29 26 27 29 28 30 32 30 29 30 28 25 24
55 49 46 42 46 40 37 32 28 25 23 27 30 29 30 32 32 31 30 30 30 31 33 39 37 35 37 40 36 32 26 22 20 21 24 25 25 25 28 27 26 27 18
61 54 51 49 45 46 44 39 35 29 21 19 26 32 34 33 30 29 31 32 31 31 33 35 37 38 40 42 40 35 29 25 23 23 24 22 23 25 27 26 26 23 18
69 63 59 56 53 51 49 46 41 36 29 23 13 11 24 30 30 30 30 30 29 29 31 34 37 38 40 42 42 40 36 32 30 26 26 24 25 26 32 36 34 29 25
71 72 66 62 59 56 54 52 48 42 39 36 30 27 16 20 31 36 34 32 31 32 35 37 38 41 44 45 45 44 41 38 35 33 32 31 30 31 35 41 39 38 35
68 66 72 69 67 63 60 56 48 47 49 47 42 40 35 32 35 35 36 40 44 45 42 40 43 44 45 46 48 48 46 46 43 43 42 39 37 36 38 46 45 42 39
79 71 69 70 69 67 61 59 55 47 44 43 49 45 44 43 43 48 46 50 51 53 55 53 49 45 46 47 47 50 52 52 52 51 48 45 43 41 45 48 45 43 39
79 73 69 67 71 68 69 64 57 55 53 47 49 50 52 52 54 58 64 62 63 62 59 58 58 57 54 50 49 49 52 57 56 56 56 53 50 48 48 50 49 50 40
83 82 77 70 67 68 71 72 67 60 56 55 52 49 50 51 55 58 62 67 69 67 65 61 60 61 60 59 58 56 55 56 58 59 61 59 55 56 60 56 59 53 56
87 83 84 83 76 70 72 72 70 67 62 58 55 56 51 52 54 55 55 57 61 62 62 58 55 54 55 59 63 64 65 64 64 63 64 62 59 58 62 66 65 57 55
87 88 87 88 86 80 74 71 72 73 72 67 62 63 63 61 61 58 51 49 50 54 54 54 51 50 52 54 55 58 62 69 72 72 72 66 68 60 76 79 76 65 60
77 81 84 84 87 85 85 84 78 73 71 70 67 64 62 58 59 61 52 50 47 51 54 57 58 57 57 57 56 56 58 63 67 70 75 78 78 73 77 84 80 63 57
60 66 72 77 79 84 78 76 79 81 75 78 76 72 65 62 61 57 57 55 45 46 49 53 56 56 58 60 60 61 64 64 65 66 68 78 85 78 77 87 77 64 60
27 25 50 60 66 71 75 74 72 74 69 71 75 72 68 65 59 53 57 64 59 53 54 56 56 54 56 59 62 64 64 62 61 58 59 65 74 80 89 84 76 67 50
Wind_Direction_850mb
162 163 153 130 72 64 90 111 145 157 162 169 170 172 152 139 128 120 126 161 157 166 176 189 193 178 177 170 170 157 166 168 145 137 153 148 148 141 147 149 150 137 134
163 169 163 194 254 324 176 159 153 155 162 162 158 163 147 129 130 115 109 100 122 139 138 132 111 153 167 159 166 156 152 154 147 144 152 142 141 135 133 138 136 138 138
168 168 176 181 157 331 172 145 136 148 150 144 142 142 134 126 117 113 108 104 104 116 133 138 128 145 160 152 152 160 148 134 153 141 142 141 143 145 139 140 145 140 141
165 157 155 131 92 113 149 139 132 141 141 138 138 140 136 124 117 110 105 100 105 106 110 116 123 135 156 152 158 163 148 151 150 149 151 161 149 149 150 148 144 142 142
159 152 139 114 89 126 131 134 131 131 132 136 141 146 144 126 113 108 104 94 102 110 109 107 104 109 130 132 141 159 156 150 150 152 156 152 154 159 158 158 151 146 146
162 158 144 117 112 116 120 131 134 129 131 127 134 142 147 147 134 125 97 101 109 118 118 110 108 109 122 114 118 127 142 141 141 153 153 152 162 164 164 165 156 151 150
168 166 152 134 126 117 117 126 133 134 137 138 138 143 148 151 148 142 124 127 130 128 134 129 122 118 121 133 124 134 141 140 141 143 150 160 162 166 165 165 162 155 160
175 171 162 150 139 130 114 107 121 141 139 129 128 148 152 147 145 132 122 125 138 138 139 138 130 123 123 137 134 130 140 146 148 143 148 153 159 160 162 162 162 161 159
183 177 173 168 152 143 130 110 110 135 144 127 116 123 153 157 147 135 123 124 136 141 142 139 132 131 130 128 131 133 136 142 141 137 142 148 154 159 159 163 165 163 161
189 182 178 178 177 171 159 143 115 133 141 139 132 120 140 144 145 142 127 134 138 139 142 138 133 136 130 133 132 136 137 140 139 133 133 142 151 155 159 164 170 166 173
190 191 186 186 182 178 170 165 149 140 138 142 141 130 138 137 133 128 135 132 137 148 143 145 145 147 137 131 134 137 142 144 146 146 147 155 160 167 173 178 178 181 192
188 194 192 187 184 179 174 173 168 152 151 139 144 139 140 136 136 136 133 134 139 137 137 141 147 152 142 131 137 137 133 143 158 154 151 153 162 171 176 180 182 184 191
188 192 196 193 191 189 182 184 178 172 168 159 153 155 153 148 143 141 139 133 141 149 148 151 150 152 157 151 149 148 146 144 150 162 166 169 171 172 177 182 187 194 194
191 193 197 199 198 196 194 191 194 188 182 181 175 169 168 169 167 165 162 157 157 161 167 169 169 171 173 171 172 170 168 166 170 180 183 181 180 186 192 196 195 184 188
194 196 199 202 201 202 203 205 203 204 198 189 192 193 187 182 178 176 173 169 168 168 172 178 185 187 188 190 193 196 199 194 195 198 201 202 206 209 203 199 195 194 211
194 197 200 204 205 206 208 208 214 214 211 208 188 181 203 207 195 189 187 187 186 187 187 189 191 192 195 200 205 209 210 208 211 210 212 222 229 225 216 207 203 204 214
198 199 200 204 208 210 207 207 207 206 212 216 213 218 206 203 202 203 202 201 201 203 208 209 209 211 212 213 215 217 219 221 223 224 227 232 230 226 220 212 210 214 216
205 206 202 203 209 213 214 212 209 212 214 217 218 224 221 214 211 212 211 214 219 218 218 219 220 223 223 223 224 225 226 229 229 233 235 236 233 236 225 217 220 223 218
207 208 207 208 210 213 217 221 221 218 220 222 226 221 223 222 218 216 219 224 228 228 229 229 229 230 231 231 231 233 234 236 236 237 238 242 241 240 230 222 223 219 209
210 211 208 209 211 213 216 220 224 226 228 227 231 229 230 226 226 224 223 223 228 229 230 232 233 234 235 233 234 236 238 237 238 241 244 247 247 240 223 219 219 209 201
209 213 212 213 213 213 216 218 222 225 228 232 233 233 235 235 237 237 236 233 233 236 237 237 236 236 237 238 238 238 239 241 242 244 245 244 241 233 231 230 219 207 204
212 215 214 214 215 215 217 219 221 225 227 228 233 238 236 237 240 242 245 245 243 243 244 243 241 240 241 242 244 244 244 244 244 244 245 245 244 244 240 223 214 212 209
215 216 218 217 221 221 220 222 226 228 230 233 236 243 244 243 243 247 250 250 246 243 242 242 242 244 245 246 247 248 248 249 250 249 247 241 243 248 232 218 215 213 213
219 221 222 220 222 226 227 227 228 230 234 235 235 239 244 245 243 249 254 253 250 246 243 243 244 245 248 250 252 254 256 254 254 252 251 246 235 241 226 215 214 212 212
213 220 224 226 227 226 228 233 234 235 235 237 239 239 239 243 245 241 245 246 244 243 244 245 245 245 247 251 252 253 254 254 257 256 252 246 244 238 224 214 212 211 196
174 232 236 233 226 231 237 234 237 241 238 238 239 238 238 242 242 245 239 246 247 247 246 248 250 251 252 251 250 249 252 252 253 253 250 248 240 229 217 209 210 197 190